Weather observations for the past three days for
Cheboygan, Cheboygan County Airport
Imperial (Metric)
Date Time (edt) Wind (mph) Vis. (mi.) Weather Sky Cond. Temperature (ºF) Relative Humidity Wind Chill (°F) Heat Index (°F) Pressure Precipitation (in)
Air Dwpt 6 hour altimeter (in) sea level (mb) 1 hr 3 hr 6 hr
Max. Min.
22 17:15 NE 10 10.00 Fair CLR 75.2 60.8 61% 77 29.98 0.0
22 16:55 E 9 10.00 Fair CLR 75.2 59 57% 78 29.99 0.0
22 16:36 NE 8 10.00 Fair CLR 75.2 57.2 54% 78 29.99 0.0
22 16:15 NE 8 10.00 Fair CLR 77 59 54% 79 30 0.0
22 15:55 E 8 10.00 Fair CLR 75.2 59 57% 78 30 0.0
22 15:35 NE 8 10.00 Fair CLR 77 59 54% 79 30.01 0.0
22 15:15 NE 7 10.00 Fair CLR 75.2 60.8 61% 77 30.01 0.0
22 14:55 NE 7 10.00 Fair CLR 77 60.8 57% 79 30.01 0.0
22 14:35 E 7 10.00 Fair CLR 77 59 54% 79 30.01 0.0
22 14:16 NE 7 10.00 Fair CLR 75.2 62.6 65% 77 30.02 0.0
22 13:55 E 7 10.00 Fair CLR 75.2 62.6 65% 77 30.02 0.0
22 13:35 NE 5 10.00 Fair CLR 75.2 62.6 65% 77 30.03 0.0
22 13:15 E 7 10.00 Fair CLR 75.2 62.6 65% 77 30.03 0.0
22 12:55 E 5 10.00 Mostly Cloudy BKN036 BKN049 73.4 62.6 69% 30.04 0.0
22 12:35 NE 5 10.00 Mostly Cloudy BKN034 BKN040 71.6 62.6 73% 30.05 0.0
22 12:15 NE 6 10.00 Overcast OVC034 73.4 62.6 69% 30.05 0.0
22 11:56 NE 5 10.00 Overcast BKN032 OVC050 71.6 62.6 73% 30.05 0.0
22 11:35 NE 5 10.00 Overcast OVC030 73.4 60.8 65% 30.06 0.0
22 11:15 Calm 10.00 Mostly Cloudy BKN032 BKN043 71.6 60.8 69% 30.06 0.0
22 10:55 NE 6 10.00 Mostly Cloudy BKN043 69.8 60.8 73% 30.06 0.0
22 10:35 NE 5 10.00 Overcast OVC043 69.8 60.8 73% 30.06 0.0
22 10:15 Calm 10.00 Overcast OVC043 69.8 57.2 64% 30.06 0.0
22 09:55 Calm 10.00 Partly Cloudy SCT043 69.8 59 69% 30.06 0.0
22 09:36 Calm 10.00 Fair CLR 68 59 73% 30.06 0.0
22 09:15 Calm 10.00 Fair CLR 66.2 59 78% 30.07 0.0
22 08:55 Calm 10.00 Fair CLR 64.4 59 83% 30.07 0.0
22 08:35 Calm 10.00 Partly Cloudy SCT041 SCT047 60.8 59 94% 30.07 0.0
22 08:15 Calm 10.00 Mostly Cloudy SCT036 BKN043 BKN049 59 57.2 94% 30.08 0.0
22 07:55 Calm 10.00 Partly Cloudy SCT034 57.2 55.4 94% 30.08 0.0
22 07:35 Calm 10.00 Fair CLR 55.4 53.6 94% 30.07 0.0
22 07:16 Calm 10.00 Fair CLR 53.6 51.8 94% 30.06 0.0
22 06:55 Calm 10.00 Fair CLR 51.8 50 94% 30.06 0.0
22 06:35 Calm 10.00 Fair CLR 50 48.2 94% 30.05 0.0
22 06:15 NW 3 10.00 Fair CLR 48.2 48.2 100% 30.05 0.0
22 05:55 Calm 10.00 Fair CLR 50 50 100% 30.05 0.0
22 05:35 Calm 10.00 Fair CLR 50 48.2 94% 30.06 0.0
22 05:15 Calm 10.00 Fair CLR 50 50 100% 30.06 0.0
22 04:56 Calm 10.00 Fair CLR 50 48.2 94% 30.07 0.0
22 04:35 Calm 10.00 Fair CLR 51.8 50 94% 30.08 0.0
22 04:15 Calm 10.00 Fair CLR 51.8 50 94% 30.08 0.0
22 03:55 Calm 10.00 Fair CLR 51.8 50 94% 30.08 0.0
22 03:35 SW 3 10.00 Partly Cloudy SCT060 53.6 51.8 94% 30.08 0.0
22 03:15 Calm 10.00 Partly Cloudy SCT060 51.8 51.8 100% 30.09 0.0
22 02:55 Calm 10.00 Fair CLR 53.6 51.8 94% 30.09 0.0
22 02:36 Calm 10.00 Mostly Cloudy BKN055 53.6 51.8 94% 30.1 0.0
22 02:15 Calm 10.00 Mostly Cloudy BKN055 51.8 51.8 100% 30.1 0.0
22 01:55 Calm 10.00 Fair CLR 51.8 50 94% 30.11 0.0
22 01:35 Calm 10.00 Fair CLR 51.8 51.8 100% 30.11 0.0
22 01:15 Calm 10.00 Fair CLR 53.6 51.8 94% 30.12 0.0
22 00:55 Calm 10.00 Fair CLR 53.6 51.8 94% 30.12 0.0
22 00:35 Calm 10.00 Fair CLR 53.6 51.8 94% 30.12 0.0
22 00:16 Calm 10.00 Fair CLR 55.4 51.8 88% 30.12 0.0
21 23:55 Calm 10.00 Fair CLR 55.4 51.8 88% 30.12 0.0
21 23:35 Calm 10.00 Fair CLR 57.2 53.6 88% 30.12 0.0
21 23:15 Calm 10.00 Fair CLR 59 53.6 82% 30.12 0.0
21 22:55 Calm 10.00 Fair CLR 59 55.4 88% 30.11 0.0
21 22:35 Calm 10.00 Fair CLR 57.2 53.6 88% 30.11 0.0
21 22:15 Calm 10.00 Fair CLR 59 55.4 88% 30.11 0.0
21 21:56 Calm 10.00 Fair CLR 60.8 55.4 83% 30.11 0.0
21 21:35 Calm 10.00 Fair CLR 60.8 55.4 83% 30.1 0.0
21 21:15 Calm 10.00 Fair CLR 62.6 55.4 77% 30.1 0.0
21 20:55 Calm 10.00 Fair CLR 66.2 55.4 68% 30.1 0.0
21 20:35 Calm 10.00 Fair CLR 71.6 53.6 53% 30.1 0.0
21 20:15 Calm 10.00 Fair CLR 71.6 53.6 53% 30.1 0.0
21 19:55 NE 3 10.00 Fair CLR 73.4 51.8 47% 30.1 0.0
21 19:36 E 5 10.00 Fair CLR 73.4 50 44% 30.1 0.0
21 19:15 E 3 10.00 Fair CLR 73.4 50 44% 30.1 0.0
21 18:35 E 5 10.00 Fair CLR 75.2 50 41% 78 30.11 0.0
21 18:15 E 5 10.00 Fair CLR 75.2 50 41% 78 30.11 0.0
21 17:55 E 5 10.00 Fair CLR 75.2 51.8 44% 78 30.11 0.0
21 17:35 E 5 10.00 Fair CLR 75.2 51.8 44% 78 30.12 0.0
21 17:16 NE 5 10.00 Fair CLR 75.2 51.8 44% 78 30.12 0.0
21 16:55 NE 7 7.00 Fair CLR 75.2 51.8 44% 78 30.13 0.0
21 16:35 E 7 10.00 Fair CLR 75.2 51.8 44% 78 30.13 0.0
21 16:15 NE 6 10.00 Fair CLR 75.2 50 41% 78 30.13 0.0
21 15:55 NE 7 10.00 Fair CLR 75.2 50 41% 78 30.13 0.0
21 15:35 NE 6 10.00 Fair CLR 73.4 50 44% 30.14 0.0
21 15:15 E 6 10.00 Fair CLR 73.4 51.8 47% 30.14 0.0
21 14:56 E 7 10.00 Fair CLR 71.6 51.8 50% 30.15 0.0
21 14:35 E 12 10.00 Fair CLR 71.6 53.6 53% 30.15 0.0
21 14:15 NE 10 10.00 Fair CLR 71.6 57.2 61% 30.15 0.0
21 13:55 E 9 10.00 Fair CLR 71.6 57.2 61% 30.15 0.0
21 13:35 E 10 10.00 Fair CLR 71.6 57.2 61% 30.15 0.0
21 13:15 NE 12 10.00 Fair CLR 71.6 57.2 61% 30.16 0.0
21 12:55 NE 13 G 16 10.00 Fair CLR 71.6 57.2 61% 30.16 0.0
21 12:36 NE 13 G 16 10.00 Fair CLR 71.6 57.2 61% 30.15 0.0
21 12:15 NE 12 10.00 Fair CLR 69.8 57.2 64% 30.15 0.0
21 11:55 NE 12 10.00 Fair CLR 69.8 57.2 64% 30.15 0.0
21 11:35 NE 12 10.00 Fair CLR 69.8 57.2 64% 30.15 0.0
21 11:15 NE 10 10.00 Fair CLR 69.8 57.2 64% 30.15 0.0
21 10:55 NE 12 7.00 Fair CLR 69.8 57.2 64% 30.15 0.0
21 10:35 NE 10 10.00 Fair CLR 69.8 57.2 64% 30.15 0.0
21 10:16 E 12 10.00 Fair CLR 68 57.2 69% 30.15 0.0
21 09:55 E 10 10.00 Fair CLR 68 57.2 69% 30.15 0.0
21 09:35 E 8 10.00 Fair CLR 68 57.2 69% 30.16 0.0
21 09:15 NE 8 10.00 Fair CLR 68 57.2 69% 30.15 0.0
21 08:55 E 10 10.00 Fair CLR 68 57.2 69% 30.16 0.0
21 08:35 NE 9 10.00 Fair CLR 66.2 55.4 68% 30.15 0.0
21 08:15 E 12 10.00 Partly Cloudy SCT055 66.2 55.4 68% 30.15 0.0
21 07:56 NE 9 10.00 Partly Cloudy SCT055 66.2 55.4 68% 30.14 0.0
21 07:35 NE 9 10.00 Fair CLR 64.4 55.4 73% 30.13 0.0
21 07:15 NE 10 10.00 Fair CLR 64.4 55.4 73% 30.13 0.0
21 06:55 NE 8 10.00 Fair CLR 64.4 55.4 73% 30.13 0.0
21 06:35 NE 10 10.00 Partly Cloudy SCT041 62.6 55.4 77% 30.12 0.0
21 06:15 NE 8 10.00 Mostly Cloudy BKN041 62.6 55.4 77% 30.11 0.0
21 05:55 NE 7 10.00 Mostly Cloudy BKN041 57.2 55.4 94% 30.1 0.0
21 05:36 Calm 10.00 Partly Cloudy SCT041 57.2 55.4 94% 30.1 0.0
21 05:15 Calm 10.00 Fair CLR 57.2 55.4 94% 30.09 0.0
21 04:55 Calm 10.00 Fair CLR 59 57.2 94% 30.09 0.0
21 04:35 Calm 10.00 Partly Cloudy SCT030 57.2 55.4 94% 30.08 0.0
21 04:15 Calm 10.00 Fair CLR 59 57.2 94% 30.08 0.0
21 03:55 Calm 10.00 Fair CLR 57.2 55.4 94% 30.08 0.0
21 03:35 W 3 10.00 Fair CLR 59 57.2 94% 30.08 0.0
21 03:16 Calm 10.00 Fair CLR 59 57.2 94% 30.08 0.0
21 02:55 Calm 10.00 Fair CLR 59 57.2 94% 30.08 0.0
21 02:35 Calm 10.00 Fair CLR 60.8 59 94% 30.08 0.0
21 02:15 Calm 10.00 Fair CLR 60.8 59 94% 30.08 0.0
21 01:55 Calm 10.00 Fair CLR 62.6 59 88% 30.08 0.0
21 01:35 W 3 10.00 Partly Cloudy SCT085 62.6 59 88% 30.08 0.0
21 01:15 SW 3 10.00 Partly Cloudy SCT085 64.4 60.8 88% 30.08 0.0
21 00:56 W 3 10.00 Mostly Cloudy BKN085 64.4 60.8 88% 30.08 0.0
21 00:35 NW 5 10.00 Partly Cloudy SCT085 64.4 60.8 88% 30.08 0.0
20 23:55 N 7 10.00 Partly Cloudy SCT041 SCT047 SCT090 66.2 60.8 83% 30.08 0.0
20 23:35 N 8 10.00 Overcast SCT040 OVC080 68 62.6 83% 30.08 0.0
20 23:15 N 7 10.00 Overcast BKN030 BKN040 OVC080 68 62.6 83% 30.08 0.0
20 22:55 NW 8 10.00 Overcast OVC028 69.8 66.2 88% 30.07 0.0
20 22:36 NW 3 10.00 Overcast BKN028 BKN043 OVC075 69.8 64.4 83% 30.07 0.0
20 22:15 NW 3 10.00 Overcast SCT034 BKN047 OVC090 71.6 66.2 83% 30.07 0.0
20 21:55 Calm 10.00 Overcast BKN036 BKN041 OVC047 71.6 66.2 83% 30.06 0.0
20 21:35 NW 3 10.00 Overcast BKN036 BKN044 OVC060 71.6 66.2 83% 30.05 0.0
20 21:15 N 5 10.00 Overcast BKN036 BKN047 OVC060 71.6 66.2 83% 30.05 0.0
20 20:55 N 8 10.00 Overcast BKN038 BKN046 OVC060 73.4 64.4 74% 30.04 0.0
20 20:35 W 3 10.00 Mostly Cloudy BKN045 BKN055 73.4 64.4 74% 30.03 0.0
20 20:16 W 3 10.00 Partly Cloudy SCT043 SCT055 75.2 64.4 69% 77 30.03 0.0
20 19:55 W 3 10.00 Partly Cloudy SCT055 SCT070 75.2 64.4 69% 77 30.03 0.0
20 19:35 W 6 10.00 Mostly Cloudy BKN070 77 64.4 65% 79 30.03 0.0
20 19:15 W 7 10.00 Mostly Cloudy BKN070 77 64.4 65% 79 30.03 0.0
20 18:55 W 9 10.00 Fair CLR 77 64.4 65% 79 30.03 0.0
20 18:35 W 8 10.00 Partly Cloudy SCT070 77 64.4 65% 79 30.02 0.0
20 18:15 W 9 10.00 Fair CLR 77 64.4 65% 79 30.03 0.0
20 17:56 W 7 10.00 Fair CLR 78.8 64.4 61% 81 30.03 0.0
20 17:35 W 7 10.00 Fair CLR 77 62.6 61% 79 30.03 0.0
20 17:15 NW 10 10.00 Partly Cloudy SCT050 SCT080 78.8 64.4 61% 81 30.03 0.0
20 16:55 W 9 10.00 Mostly Cloudy SCT060 BKN080 77 62.6 61% 79 30.03 0.0
20 16:35 W 8 10.00 Overcast OVC060 77 62.6 61% 79 30.03 0.0
20 16:15 W 8 10.00 Overcast OVC060 77 62.6 61% 79 30.03 0.0
20 15:55 W 12 10.00 Overcast OVC060 78.8 62.6 58% 80 30.03 0.0
20 15:36 W 9 10.00 Overcast OVC070 80.6 60.8 51% 81 30.03 0.0
20 15:15 W 10 10.00 Overcast BKN070 OVC085 80.6 60.8 51% 81 30.03 0.0
20 14:55 W 10 G 16 10.00 Mostly Cloudy BKN070 BKN085 80.6 60.8 51% 81 30.03 0.0
20 14:35 W 9 G 16 10.00 Mostly Cloudy SCT060 BKN070 80.6 60.8 51% 81 30.03 0.0
20 14:15 W 10 10.00 Partly Cloudy SCT060 82.4 62.6 51% 83 30.03 0.0
20 13:55 W 9 10.00 Fair CLR 80.6 62.6 54% 82 30.03 0.0
20 13:35 W 12 G 18 10.00 Fair CLR 80.6 60.8 51% 81 30.03 0.0
20 13:16 W 9 10.00 Partly Cloudy SCT120 80.6 62.6 54% 82 30.03 0.0
20 12:55 SW 12 10.00 Partly Cloudy SCT120 80.6 62.6 54% 82 30.03 0.0
20 12:35 W 6 10.00 Fair CLR 78.8 62.6 58% 80 30.03 0.0
20 12:15 W 10 10.00 Partly Cloudy SCT120 78.8 64.4 61% 81 30.03 0.0
20 11:55 SW 8 10.00 Partly Cloudy SCT120 78.8 64.4 61% 81 30.04 0.0
20 11:35 W 7 10.00 Fair CLR 77 62.6 61% 79 30.04 0.0
20 11:15 W 6 10.00 Partly Cloudy SCT120 77 62.6 61% 79 30.03 0.0
20 10:56 SW 9 10.00 Fair CLR 77 62.6 61% 79 30.03 0.0
20 10:35 SW 9 10.00 Fair CLR 75.2 62.6 65% 77 30.03 0.0
20 10:15 W 9 10.00 Fair CLR 75.2 62.6 65% 77 30.03 0.0
20 09:55 SW 9 10.00 Fair CLR 73.4 62.6 69% 30.03 0.0
20 09:35 W 10 10.00 Fair CLR 73.4 62.6 69% 30.03 0.0
20 09:15 W 9 10.00 Fair CLR 71.6 62.6 73% 30.04 0.0
20 08:55 W 7 10.00 Fair CLR 69.8 62.6 78% 30.04 0.0
20 08:36 SW 8 10.00 Fair CLR 69.8 60.8 73% 30.04 0.0
20 08:15 SW 8 10.00 Fair CLR 68 60.8 78% 30.03 0.0
20 07:55 SW 7 10.00 Fair CLR 66.2 59 78% 30.03 0.0
20 07:35 W 5 10.00 Fair CLR 64.4 59 83% 30.03 0.0
20 07:15 SW 5 10.00 Fair CLR 62.6 57.2 83% 30.03 0.0
20 06:55 SW 3 10.00 Fair CLR 60.8 57.2 88% 30.03 0.0
20 06:35 NE 5 10.00 Fair CLR 60.8 55.4 83% 30.03 0.0
20 06:16 Calm 10.00 Fair CLR 60.8 55.4 83% 30.03 0.0
20 05:55 Calm 10.00 Fair CLR 62.6 55.4 77% 30.03 0.0
20 05:35 SW 5 10.00 Fair CLR 62.6 55.4 77% 30.03 0.0
20 05:15 SW 5 10.00 Fair CLR 62.6 55.4 77% 30.03 0.0
20 04:55 SW 5 10.00 Fair CLR 62.6 55.4 77% 30.02 0.0
20 04:35 SW 7 10.00 Fair CLR 62.6 55.4 77% 30.02 0.0
20 04:15 SW 6 10.00 Fair CLR 62.6 55.4 77% 30.03 0.0
20 03:56 SW 6 10.00 Partly Cloudy SCT065 64.4 55.4 73% 30.03 0.0
20 03:35 SW 7 10.00 Mostly Cloudy BKN065 64.4 55.4 73% 30.03 0.0
20 03:15 SW 6 10.00 Fair CLR 64.4 53.6 68% 30.03 0.0
20 02:55 SW 7 10.00 Fair CLR 64.4 53.6 68% 30.04 0.0
20 02:35 SW 6 10.00 Fair CLR 64.4 55.4 73% 30.04 0.0
20 02:15 SW 6 10.00 Fair CLR 64.4 55.4 73% 30.04 0.0
20 01:55 SW 6 10.00 Fair CLR 62.6 55.4 77% 30.05 0.0
20 01:36 SW 5 10.00 Fair CLR 62.6 55.4 77% 30.05 0.0
20 01:15 SW 5 10.00 Fair CLR 62.6 55.4 77% 30.06 0.0
20 00:55 Calm 10.00 Fair CLR 62.6 55.4 77% 30.06 0.0
20 00:35 SW 3 10.00 Fair CLR 62.6 55.4 77% 30.06 0.0
20 00:15 SW 5 10.00 Fair CLR 62.6 55.4 77% 30.07 0.0
19 23:55 SW 3 10.00 Fair CLR 62.6 55.4 77% 30.07 0.0
19 23:35 SW 5 10.00 Fair CLR 64.4 55.4 73% 30.07 0.0
19 23:16 SW 6 10.00 Fair CLR 62.6 53.6 73% 30.07 0.0
19 22:55 W 3 10.00 Fair CLR 60.8 53.6 77% 30.08 0.0
19 22:35 Calm 10.00 Fair CLR 62.6 53.6 73% 30.08 0.0
19 22:15 Calm 10.00 Fair CLR 64.4 53.6 68% 30.07 0.0
19 21:55 W 3 10.00 Fair CLR 66.2 53.6 64% 30.07 0.0
19 21:35 SW 5 10.00 Fair CLR 68 53.6 60% 30.06 0.0
19 21:15 SW 5 10.00 Fair CLR 68 53.6 60% 30.05 0.0
19 20:56 Calm 10.00 Fair CLR 69.8 53.6 57% 30.05 0.0
19 20:35 SW 3 10.00 Fair CLR 71.6 53.6 53% 30.05 0.0
19 20:15 W 6 10.00 Fair CLR 73.4 51.8 47% 30.05 0.0
19 19:55 W 9 10.00 Fair CLR 75.2 51.8 44% 78 30.05 0.0
19 19:35 SW 7 G 17 10.00 Fair CLR 75.2 51.8 44% 78 30.06 0.0
19 19:15 W 12 G 16 10.00 Fair CLR 75.2 51.8 44% 78 30.06 0.0
19 18:55 W 10 G 18 10.00 Fair CLR 77 51.8 42% 78 30.06 0.0
19 18:36 W 9 G 17 10.00 Fair CLR 77 51.8 42% 78 30.07 0.0
19 18:15 W 10 G 18 10.00 Fair CLR 77 51.8 42% 78 30.07 0.0
19 17:55 W 13 G 17 10.00 Fair CLR 77 51.8 42% 78 30.08 0.0
19 17:35 W 12 G 17 10.00 Fair CLR 78.8 53.6 42% 79 30.08 0.0
Date Time (edt) Wind (mph) Vis. (mi.) Weather Sky Cond. Air Dwpt Max. Min. Relative Humidity Wind Chill (°F) Heat Index (°F) altimeter (in) sea level (mb) 1 hr 3 hr 6 hr
6 hour
Temperature (ºF) Pressure Precipitation (in)